Home   Weather   Farah   Past weeks
Flag for Afghanistan

Past Weather in Farah, Afghanistan — Yesterday and Last 2 Weeks

Now
55 °F

Clear.


Feels Like: 54 °F
Forecast: 83 / 47 °F
Wind: 7 mph from Northwest

Location: Zabol Airport

Current Time: Oct 16, 2019 at 7:25:56 am

Latest Report: Oct 16, 2019 at 6:30 am


Visibility: 10 mi

Pressure: 30.15 "Hg (27.87 "Hg at 658m altitude)

Humidity: 38%

Dew Point: 30 °F

Location of FarahLocation

Past Weather in Farah — Graph

°F

Farah Temperature Yesterday

Maximum temperature yesterday: 81 °F (at 2:30 pm)
Minimum temperature yesterday: 61 °F (at 6:30 am)
Average temperature yesterday: 70 °F

High & Low Weather Summary for the Past Weeks

 TemperatureHumidityPressure
High100 °F (Oct 8, 3:30 pm)57% (Oct 3, 11:30 pm)30.21 "Hg (Oct 3, 11:30 pm)
Low59 °F (Oct 7, 6:30 am)12% (Oct 6, 12:30 pm)29.74 "Hg (Oct 1, 2:30 pm)
Average79 °F25%29.94 "Hg
* Reported Oct 1 4:30 am — Oct 16 4:30 am, Farah. Weather by CustomWeather, © 2019

Note: Actual official high and low records may vary slightly from our data, if they occured in-between our weather recording intervals... More about our weather records

Advertising

Farah Weather History for the Previous 24 Hours

Scroll right to see more
 ConditionsComfort  
Time TempWeatherWind HumidityBarometerVisibility
4:30 am
Wed, Oct 16
59 °FClear.9 mph34%30.12 "Hg10 mi
1:30 am61 °FClear.9 mph36%30.12 "Hg10 mi
12:30 am64 °FClear.12 mph32%30.12 "Hg10 mi
11:30 pm
Tue, Oct 15
64 °FClear.12 mph32%30.12 "Hg10 mi
10:30 pm64 °FClear.9 mph32%30.12 "Hg10 mi
9:30 pm68 °FClear.12 mph28%30.12 "Hg10 mi
8:30 pm68 °FClear.9 mph30%30.12 "Hg10 mi
7:30 pm70 °FClear.9 mph29%30.09 "Hg10 mi
6:30 pm73 °FClear.9 mph25%30.09 "Hg10 mi
5:30 pm79 °FSunny.21 mph21%30.07 "Hg10 mi
4:30 pm81 °FSunny.22 mph20%30.07 "Hg10 mi
3:30 pm81 °FSunny.21 mph20%30.07 "Hg10 mi
2:30 pm81 °FSunny.24 mph20%30.09 "Hg10 mi
1:30 pm79 °FSunny.26 mph21%30.12 "Hg10 mi
12:30 pm77 °FSunny.26 mph24%30.15 "Hg10 mi
11:30 am73 °FSunny.26 mph25%30.18 "Hg10 mi
10:30 am72 °FSunny.22 mph25%30.21 "Hg10 mi
9:30 am68 °FSunny.22 mph28%30.21 "Hg10 mi
8:30 am64 °FSunny.21 mph30%30.18 "Hg10 mi
7:30 am61 °FSunny.16 mph34%30.18 "Hg10 mi
Weather by CustomWeather, © 2019

See weather overview